DEVICE NETWORK
Gateway Status
13 ESP · realtime ~1s · history 60s
Weather
WS-MOD-01
OFFLINE
Actuator
ACT-MOD-01
OFFLINE
Mainboard L3
MB-L3-01
OFFLINE
Mainboard L5
MB-L5-01
OFFLINE
Remote AC
AC-REMOTE-01
OFFLINE
PZEM L3-01
PWR-L3-01
OFFLINE
PZEM L3-02
PWR-L3-02
OFFLINE
PZEM L3-03
PWR-L3-03
OFFLINE
PZEM L3-04
PWR-L3-04
OFFLINE
PZEM L5-01
PWR-L5-01
OFFLINE
PZEM L5-02
PWR-L5-02
OFFLINE
PZEM L5-03
PWR-L5-03
OFFLINE
PZEM L5-04
PWR-L5-04
OFFLINE
REPORT FILTER
DATABASE HISTORY
Periode & Sensor
REPORT RESULT
Data Sensor
04/08/2026 — 02/09/2026
EXPORT CSV
| NO | TANGGAL | WAKTU | DEVICE | CHANNEL | SENSOR | VALUE | UNIT |
|---|---|---|---|---|---|---|---|
| 10101 | 02/09/2026 | 14:55:44 | MB-L3-01Mainboard Lantai 3 | L3-LUX-04 | Illuminance / LUX 4 | 99.70 | lux |
| 10102 | 02/09/2026 | 14:55:44 | MB-L3-01Mainboard Lantai 3 | L3-HFT-02 | Heat Flow Temperature 2 | 29.00 | °C |
| 10103 | 02/09/2026 | 14:55:44 | MB-L3-01Mainboard Lantai 3 | L3-LUX-03 | Illuminance / LUX 3 | 147.50 | lux |
| 10104 | 02/09/2026 | 14:55:44 | MB-L3-01Mainboard Lantai 3 | L3-AI-03 | Analog Input 3 | 3.12 | V |
| 10105 | 02/09/2026 | 14:55:44 | MB-L3-01Mainboard Lantai 3 | L3-SHT-03-RH | SHT20 3 Humidity | 49.10 | %RH |
| 10106 | 02/09/2026 | 14:55:44 | MB-L3-01Mainboard Lantai 3 | L3-SHT-02-RH | SHT20 2 Humidity | 48.40 | %RH |
| 10107 | 02/09/2026 | 14:55:44 | MB-L3-01Mainboard Lantai 3 | L3-BGT-01 | Black Globe Temperature 1 | 29.70 | °C |
| 10108 | 02/09/2026 | 14:55:44 | MB-L3-01Mainboard Lantai 3 | L3-LUX-01 | Illuminance / LUX 1 | 30.70 | lux |
| 10109 | 02/09/2026 | 14:55:44 | MB-L3-01Mainboard Lantai 3 | L3-RAD-02 | Radiation 2 | 1.00 | W/m² |
| 10110 | 02/09/2026 | 14:55:44 | MB-L3-01Mainboard Lantai 3 | L3-SHT-03-T | SHT20 3 Temperature | 31.70 | °C |
| 10111 | 02/09/2026 | 14:55:44 | MB-L3-01Mainboard Lantai 3 | L3-AI-04 | Analog Input 4 | 3.12 | V |
| 10112 | 02/09/2026 | 14:55:44 | MB-L3-01Mainboard Lantai 3 | L3-BGT-02 | Black Globe Temperature 2 | 29.70 | °C |
| 10113 | 02/09/2026 | 14:55:44 | MB-L3-01Mainboard Lantai 3 | L3-RAD-01 | Radiation 1 | 1.00 | W/m² |
| 10114 | 02/09/2026 | 14:55:44 | MB-L3-01Mainboard Lantai 3 | L3-ST-01 | Surface Temperature 1 | 29.70 | °C |
| 10115 | 02/09/2026 | 14:55:44 | MB-L3-01Mainboard Lantai 3 | L3-AI-05 | Analog Input 5 | 3.12 | V |
| 10116 | 02/09/2026 | 14:55:44 | MB-L3-01Mainboard Lantai 3 | L3-SHT-02-T | SHT20 2 Temperature | 32.00 | °C |
| 10117 | 02/09/2026 | 14:55:44 | MB-L3-01Mainboard Lantai 3 | L3-BGT-03 | Black Globe Temperature 3 | 28.90 | °C |
| 10118 | 02/09/2026 | 14:55:44 | MB-L3-01Mainboard Lantai 3 | L3-LUX-05 | Illuminance / LUX 5 | 56.30 | lux |
| 10119 | 02/09/2026 | 14:55:44 | MB-L3-01Mainboard Lantai 3 | L3-ST-02 | Surface Temperature 2 | 29.70 | °C |
| 10120 | 02/09/2026 | 14:55:44 | MB-L3-01Mainboard Lantai 3 | L3-AI-06 | Analog Input 6 | 3.12 | V |
| 10121 | 02/09/2026 | 14:55:44 | MB-L3-01Mainboard Lantai 3 | L3-LUX-06 | Illuminance / LUX 6 | 31.50 | lux |
| 10122 | 02/09/2026 | 14:55:44 | MB-L3-01Mainboard Lantai 3 | L3-AI-01 | Analog Input 1 | 3.12 | V |
| 10123 | 02/09/2026 | 14:55:44 | MB-L3-01Mainboard Lantai 3 | L3-SHT-01-T | SHT20 1 Temperature | 32.10 | °C |
| 10124 | 02/09/2026 | 14:55:43 | MB-L5-01Mainboard Lantai 5 | L5-LUX-03 | Illuminance / LUX 3 | 172.90 | lux |
| 10125 | 02/09/2026 | 14:55:43 | MB-L5-01Mainboard Lantai 5 | L5-BGT-02 | Black Globe Temperature 2 | 29.90 | °C |
| 10126 | 02/09/2026 | 14:55:43 | MB-L5-01Mainboard Lantai 5 | L5-BGT-01 | Black Globe Temperature 1 | 29.90 | °C |
| 10127 | 02/09/2026 | 14:55:43 | MB-L5-01Mainboard Lantai 5 | L5-SHT-01-T | SHT20 1 Temperature | 32.40 | °C |
| 10128 | 02/09/2026 | 14:55:43 | MB-L5-01Mainboard Lantai 5 | L5-HFT-02 | Heat Flow Temperature 2 | 29.90 | °C |
| 10129 | 02/09/2026 | 14:55:43 | MB-L5-01Mainboard Lantai 5 | L5-HFT-01 | Heat Flow Temperature 1 | 30.10 | °C |
| 10130 | 02/09/2026 | 14:55:43 | MB-L5-01Mainboard Lantai 5 | L5-LUX-06 | Illuminance / LUX 6 | 232.10 | lux |
| 10131 | 02/09/2026 | 14:55:43 | MB-L5-01Mainboard Lantai 5 | L5-ST-02 | Surface Temperature 2 | 30.40 | °C |
| 10132 | 02/09/2026 | 14:55:43 | MB-L5-01Mainboard Lantai 5 | L5-LUX-04 | Illuminance / LUX 4 | 227.60 | lux |
| 10133 | 02/09/2026 | 14:55:43 | MB-L5-01Mainboard Lantai 5 | L5-LUX-02 | Illuminance / LUX 2 | 117.80 | lux |
| 10134 | 02/09/2026 | 14:55:43 | MB-L5-01Mainboard Lantai 5 | L5-ST-01 | Surface Temperature 1 | 30.30 | °C |
| 10135 | 02/09/2026 | 14:55:43 | MB-L5-01Mainboard Lantai 5 | L5-RAD-02 | Radiation 2 | 1.00 | W/m² |
| 10136 | 02/09/2026 | 14:55:43 | MB-L5-01Mainboard Lantai 5 | L5-LUX-05 | Illuminance / LUX 5 | 405.00 | lux |
| 10137 | 02/09/2026 | 14:55:43 | MB-L5-01Mainboard Lantai 5 | L5-AI-06 | Analog Input 6 | 3.05 | V |
| 10138 | 02/09/2026 | 14:55:43 | MB-L5-01Mainboard Lantai 5 | L5-SHT-02-RH | SHT20 2 Humidity | 48.30 | %RH |
| 10139 | 02/09/2026 | 14:55:43 | MB-L5-01Mainboard Lantai 5 | L5-AI-05 | Analog Input 5 | 3.05 | V |
| 10140 | 02/09/2026 | 14:55:43 | MB-L5-01Mainboard Lantai 5 | L5-SHT-03-T | SHT20 3 Temperature | 32.10 | °C |
| 10141 | 02/09/2026 | 14:55:43 | MB-L5-01Mainboard Lantai 5 | L5-SHT-02-T | SHT20 2 Temperature | 32.20 | °C |
| 10142 | 02/09/2026 | 14:55:43 | MB-L5-01Mainboard Lantai 5 | L5-SHT-03-RH | SHT20 3 Humidity | 48.90 | %RH |
| 10143 | 02/09/2026 | 14:55:43 | MB-L5-01Mainboard Lantai 5 | L5-AI-04 | Analog Input 4 | 3.05 | V |
| 10144 | 02/09/2026 | 14:55:43 | MB-L5-01Mainboard Lantai 5 | L5-AI-03 | Analog Input 3 | 3.05 | V |
| 10145 | 02/09/2026 | 14:55:43 | MB-L5-01Mainboard Lantai 5 | L5-RAD-01 | Radiation 1 | 1.00 | W/m² |
| 10146 | 02/09/2026 | 14:55:43 | MB-L5-01Mainboard Lantai 5 | L5-AI-02 | Analog Input 2 | 3.05 | V |
| 10147 | 02/09/2026 | 14:55:43 | MB-L5-01Mainboard Lantai 5 | L5-SHT-01-RH | SHT20 1 Humidity | 48.40 | %RH |
| 10148 | 02/09/2026 | 14:55:43 | MB-L5-01Mainboard Lantai 5 | L5-LUX-01 | Illuminance / LUX 1 | 220.90 | lux |
| 10149 | 02/09/2026 | 14:55:43 | MB-L5-01Mainboard Lantai 5 | L5-AI-01 | Analog Input 1 | 3.05 | V |
| 10150 | 02/09/2026 | 14:55:43 | MB-L5-01Mainboard Lantai 5 | L5-BGT-03 | Black Globe Temperature 3 | 29.80 | °C |
| 10151 | 02/09/2026 | 14:55:42 | MB-L5-01Mainboard Lantai 5 | L5-HFT-01 | Heat Flow Temperature 1 | 30.00 | °C |
| 10152 | 02/09/2026 | 14:55:42 | MB-L5-01Mainboard Lantai 5 | L5-LUX-06 | Illuminance / LUX 6 | 230.90 | lux |
| 10153 | 02/09/2026 | 14:55:42 | MB-L5-01Mainboard Lantai 5 | L5-ST-02 | Surface Temperature 2 | 30.30 | °C |
| 10154 | 02/09/2026 | 14:55:42 | MB-L3-01Mainboard Lantai 3 | L3-LUX-03 | Illuminance / LUX 3 | 133.80 | lux |
| 10155 | 02/09/2026 | 14:55:42 | MB-L5-01Mainboard Lantai 5 | L5-LUX-04 | Illuminance / LUX 4 | 224.40 | lux |
| 10156 | 02/09/2026 | 14:55:42 | MB-L3-01Mainboard Lantai 3 | L3-AI-03 | Analog Input 3 | 3.12 | V |
| 10157 | 02/09/2026 | 14:55:42 | MB-L5-01Mainboard Lantai 5 | L5-LUX-02 | Illuminance / LUX 2 | 117.80 | lux |
| 10158 | 02/09/2026 | 14:55:42 | MB-L5-01Mainboard Lantai 5 | L5-ST-01 | Surface Temperature 1 | 30.20 | °C |
| 10159 | 02/09/2026 | 14:55:42 | MB-L3-01Mainboard Lantai 3 | L3-SHT-03-RH | SHT20 3 Humidity | 49.20 | %RH |
| 10160 | 02/09/2026 | 14:55:42 | MB-L3-01Mainboard Lantai 3 | L3-SHT-02-RH | SHT20 2 Humidity | 48.30 | %RH |
| 10161 | 02/09/2026 | 14:55:42 | MB-L3-01Mainboard Lantai 3 | L3-BGT-01 | Black Globe Temperature 1 | 29.80 | °C |
| 10162 | 02/09/2026 | 14:55:42 | MB-L5-01Mainboard Lantai 5 | L5-RAD-02 | Radiation 2 | 1.00 | W/m² |
| 10163 | 02/09/2026 | 14:55:42 | MB-L3-01Mainboard Lantai 3 | L3-LUX-01 | Illuminance / LUX 1 | 29.70 | lux |
| 10164 | 02/09/2026 | 14:55:42 | MB-L5-01Mainboard Lantai 5 | L5-LUX-05 | Illuminance / LUX 5 | 401.90 | lux |
| 10165 | 02/09/2026 | 14:55:42 | MB-L3-01Mainboard Lantai 3 | L3-RAD-02 | Radiation 2 | 1.00 | W/m² |
| 10166 | 02/09/2026 | 14:55:42 | MB-L3-01Mainboard Lantai 3 | L3-SHT-03-T | SHT20 3 Temperature | 31.70 | °C |
| 10167 | 02/09/2026 | 14:55:42 | MB-L5-01Mainboard Lantai 5 | L5-AI-06 | Analog Input 6 | 3.05 | V |
| 10168 | 02/09/2026 | 14:55:42 | MB-L5-01Mainboard Lantai 5 | L5-SHT-02-RH | SHT20 2 Humidity | 48.40 | %RH |
| 10169 | 02/09/2026 | 14:55:42 | MB-L3-01Mainboard Lantai 3 | L3-AI-04 | Analog Input 4 | 3.12 | V |
| 10170 | 02/09/2026 | 14:55:42 | MB-L3-01Mainboard Lantai 3 | L3-BGT-02 | Black Globe Temperature 2 | 29.70 | °C |
| 10171 | 02/09/2026 | 14:55:42 | MB-L3-01Mainboard Lantai 3 | L3-RAD-01 | Radiation 1 | 1.00 | W/m² |
| 10172 | 02/09/2026 | 14:55:42 | MB-L5-01Mainboard Lantai 5 | L5-AI-05 | Analog Input 5 | 3.05 | V |
| 10173 | 02/09/2026 | 14:55:42 | MB-L5-01Mainboard Lantai 5 | L5-SHT-03-T | SHT20 3 Temperature | 32.10 | °C |
| 10174 | 02/09/2026 | 14:55:42 | MB-L5-01Mainboard Lantai 5 | L5-SHT-02-T | SHT20 2 Temperature | 32.30 | °C |
| 10175 | 02/09/2026 | 14:55:42 | MB-L5-01Mainboard Lantai 5 | L5-SHT-03-RH | SHT20 3 Humidity | 49.00 | %RH |
| 10176 | 02/09/2026 | 14:55:42 | MB-L5-01Mainboard Lantai 5 | L5-AI-04 | Analog Input 4 | 3.05 | V |
| 10177 | 02/09/2026 | 14:55:42 | MB-L3-01Mainboard Lantai 3 | L3-ST-01 | Surface Temperature 1 | 29.80 | °C |
| 10178 | 02/09/2026 | 14:55:42 | MB-L5-01Mainboard Lantai 5 | L5-AI-03 | Analog Input 3 | 3.05 | V |
| 10179 | 02/09/2026 | 14:55:42 | MB-L3-01Mainboard Lantai 3 | L3-AI-05 | Analog Input 5 | 3.12 | V |
| 10180 | 02/09/2026 | 14:55:42 | MB-L5-01Mainboard Lantai 5 | L5-RAD-01 | Radiation 1 | 1.00 | W/m² |
| 10181 | 02/09/2026 | 14:55:42 | MB-L3-01Mainboard Lantai 3 | L3-SHT-02-T | SHT20 2 Temperature | 32.10 | °C |
| 10182 | 02/09/2026 | 14:55:42 | MB-L5-01Mainboard Lantai 5 | L5-AI-02 | Analog Input 2 | 3.05 | V |
| 10183 | 02/09/2026 | 14:55:42 | MB-L3-01Mainboard Lantai 3 | L3-BGT-03 | Black Globe Temperature 3 | 29.20 | °C |
| 10184 | 02/09/2026 | 14:55:42 | MB-L5-01Mainboard Lantai 5 | L5-SHT-01-RH | SHT20 1 Humidity | 48.50 | %RH |
| 10185 | 02/09/2026 | 14:55:42 | MB-L3-01Mainboard Lantai 3 | L3-LUX-05 | Illuminance / LUX 5 | 56.30 | lux |
| 10186 | 02/09/2026 | 14:55:42 | MB-L3-01Mainboard Lantai 3 | L3-ST-02 | Surface Temperature 2 | 29.70 | °C |
| 10187 | 02/09/2026 | 14:55:42 | MB-L5-01Mainboard Lantai 5 | L5-LUX-01 | Illuminance / LUX 1 | 208.30 | lux |
| 10188 | 02/09/2026 | 14:55:42 | MB-L5-01Mainboard Lantai 5 | L5-AI-01 | Analog Input 1 | 3.05 | V |
| 10189 | 02/09/2026 | 14:55:42 | MB-L3-01Mainboard Lantai 3 | L3-AI-06 | Analog Input 6 | 3.12 | V |
| 10190 | 02/09/2026 | 14:55:42 | MB-L3-01Mainboard Lantai 3 | L3-LUX-06 | Illuminance / LUX 6 | 28.20 | lux |
| 10191 | 02/09/2026 | 14:55:42 | MB-L3-01Mainboard Lantai 3 | L3-AI-01 | Analog Input 1 | 3.12 | V |
| 10192 | 02/09/2026 | 14:55:42 | MB-L5-01Mainboard Lantai 5 | L5-BGT-03 | Black Globe Temperature 3 | 29.80 | °C |
| 10193 | 02/09/2026 | 14:55:42 | MB-L3-01Mainboard Lantai 3 | L3-SHT-01-T | SHT20 1 Temperature | 32.20 | °C |
| 10194 | 02/09/2026 | 14:55:42 | MB-L3-01Mainboard Lantai 3 | L3-HFT-01 | Heat Flow Temperature 1 | 29.50 | °C |
| 10195 | 02/09/2026 | 14:55:42 | MB-L5-01Mainboard Lantai 5 | L5-LUX-03 | Illuminance / LUX 3 | 162.70 | lux |
| 10196 | 02/09/2026 | 14:55:42 | MB-L5-01Mainboard Lantai 5 | L5-BGT-02 | Black Globe Temperature 2 | 29.90 | °C |
| 10197 | 02/09/2026 | 14:55:42 | MB-L3-01Mainboard Lantai 3 | L3-LUX-02 | Illuminance / LUX 2 | 18.20 | lux |
| 10198 | 02/09/2026 | 14:55:42 | MB-L3-01Mainboard Lantai 3 | L3-SHT-01-RH | SHT20 1 Humidity | 48.50 | %RH |
| 10199 | 02/09/2026 | 14:55:42 | MB-L5-01Mainboard Lantai 5 | L5-BGT-01 | Black Globe Temperature 1 | 30.00 | °C |
| 10200 | 02/09/2026 | 14:55:42 | MB-L3-01Mainboard Lantai 3 | L3-AI-02 | Analog Input 2 | 3.12 | V |
Menampilkan maksimal 100 data per halaman